Simultaneous Nadir Overpasses (SNOs) Predictions

Prediction of SNOs between NOAA-19 and NPP Satellite Orbit:

Table of predicted SNOs for the next 14.0 days since TLE Epoch: 3/28/2014
Index Date (NOAA-19) Time (NOAA-19) Lat,Lon (NOAA-19) SZA (NOAA-19 ) Date (NPP) Time (NPP) Lat,Lon (NPP) SZA (NPP ) Distance(km) Time Diff (sec)
1 03/31/2014 03:17:24 -81.00,-103.51 99.21 03/31/2014 03:18:23 -81.00,-103.39 99.25 2.07 59
2 03/31/2014 04:08:19 80.99, 64.42 80.69 03/31/2014 04:09:07 80.99, 64.37 80.67 0.91 48
3 03/31/2014 04:59:26 -80.99,-128.35 99.33 03/31/2014 04:59:52 -80.99,-128.37 99.34 0.35 26
4 03/31/2014 05:50:23 80.99, 38.84 80.67 03/31/2014 05:50:37 80.98, 39.02 80.64 3.27 14
5 03/31/2014 06:41:28 -80.97,-153.19 99.45 03/31/2014 06:41:21 -80.97,-153.35 99.43 2.72 7
6 03/31/2014 07:32:25 80.97, 14.00 80.55 03/31/2014 07:32:06 80.97, 14.04 80.55 0.85 19
7 03/31/2014 08:23:32 -80.97,-178.78 99.47 03/31/2014 08:22:51 -80.97,-178.69 99.46 1.48 41
8 03/31/2014 09:14:27 80.95, -10.85 80.42 03/31/2014 09:13:35 80.95, -10.94 80.46 1.58 52




NCC Satellite Simultaneous Nadir Overpasses (SNOs) Prediction Service
